TimeCDT,TemperatureF,Dew PointF,Humidity,Sea Level PressureIn,VisibilityMPH,Wind Direction,Wind SpeedMPH,Gust SpeedMPH,PrecipitationIn,Events,Conditions,WindDirDegrees,DateUTC
12:52 AM,78.1,64.0,62,29.79,10.0,SSE,12.7,-,N/A,,Clear,160,2013-10-05 05:52:00
1:52 AM,77.0,63.0,62,29.79,10.0,South,11.5,19.6,N/A,,Clear,180,2013-10-05 06:52:00
2:52 AM,75.0,63.0,66,29.82,10.0,SW,3.5,-,N/A,,Clear,220,2013-10-05 07:52:00
3:45 AM,69.8,51.8,53,29.94,10.0,North,21.9,29.9,N/A,,Overcast,360,2013-10-05 08:45:00
3:52 AM,69.1,51.1,53,29.87,10.0,North,24.2,-,N/A,,Overcast,350,2013-10-05 08:52:00
4:52 AM,63.0,48.9,60,29.92,10.0,North,24.2,33.4,N/A,,Overcast,360,2013-10-05 09:52:00
5:52 AM,61.0,41.0,48,29.96,10.0,North,23.0,28.8,N/A,,Overcast,360,2013-10-05 10:52:00
6:42 AM,60.8,39.2,45,30.05,10.0,North,17.3,-,N/A,,Overcast,350,2013-10-05 11:42:00
6:52 AM,60.1,39.0,46,29.99,10.0,North,17.3,-,N/A,,Overcast,360,2013-10-05 11:52:00
7:52 AM,57.9,39.0,49,30.02,10.0,North,18.4,-,0.00,Rain,Light Rain,350,2013-10-05 12:52:00
8:52 AM,57.0,35.1,44,30.06,10.0,North,18.4,26.5,0.00,,Overcast,360,2013-10-05 13:52:00
9:52 AM,57.0,34.0,42,30.09,10.0,North,21.9,33.4,N/A,,Overcast,360,2013-10-05 14:52:00
10:52 AM,57.0,34.0,42,30.10,10.0,North,19.6,27.6,N/A,,Overcast,360,2013-10-05 15:52:00
11:52 AM,55.9,35.1,45,30.12,10.0,North,15.0,23.0,0.00,,Overcast,10,2013-10-05 16:52:00
12:52 PM,55.9,33.1,42,30.10,10.0,North,12.7,21.9,N/A,,Overcast,10,2013-10-05 17:52:00
1:52 PM,52.0,44.1,74,30.09,10.0,NNE,5.8,-,0.16,,Overcast,30,2013-10-05 18:52:00
2:08 PM,51.8,44.6,76,30.12,1.5,NNE,9.2,-,0.04,Rain,Heavy Rain,20,2013-10-05 19:08:00
2:20 PM,51.8,44.6,76,30.11,10.0,ENE,8.1,-,0.24,Rain,Light Rain,60,2013-10-05 19:20:00
2:52 PM,54.0,51.1,90,30.06,10.0,East,8.1,-,0.24,,Mostly Cloudy,100,2013-10-05 19:52:00
3:52 PM,57.0,45.0,64,30.06,10.0,East,6.9,-,N/A,,Overcast,100,2013-10-05 20:52:00
4:52 PM,61.0,43.0,52,30.06,10.0,ESE,5.8,-,N/A,,Overcast,110,2013-10-05 21:52:00
5:52 PM,62.1,43.0,50,30.04,10.0,East,5.8,-,N/A,,Mostly Cloudy,90,2013-10-05 22:52:00
6:52 PM,63.0,43.0,48,30.06,10.0,NE,3.5,-,N/A,,Mostly Cloudy,50,2013-10-05 23:52:00
7:52 PM,60.1,48.0,64,30.09,10.0,ESE,5.8,-,N/A,,Overcast,110,2013-10-06 00:52:00
8:52 PM,55.9,46.9,72,30.11,10.0,SE,3.5,-,N/A,,Clear,130,2013-10-06 01:52:00
9:52 PM,54.0,48.0,80,30.12,10.0,South,4.6,-,N/A,,Clear,180,2013-10-06 02:52:00
10:52 PM,52.0,46.9,83,30.14,10.0,SSW,4.6,-,N/A,,Clear,210,2013-10-06 03:52:00
11:52 PM,51.1,46.9,86,30.14,10.0,SW,3.5,-,N/A,,Mostly Cloudy,220,2013-10-06 04:52:00